Location: Calvera
(42.3882°N, 0.6137°E)
Time: 13:35:10
(UTC+00:00)

SL-16 R/B - Pass Details

Date: 28 October 2020
Orbit: 843 x 845 km, 71.0° (Epoch: 24 November)

Event Time Altitude Azimuth Distance (km) Brightness Sun altitude
Rises 05:43:35 0° 337° (NNW) 3,414 5.0 -8.5°
Reaches altitude 10° 05:46:03 10° 340° (NNW) 2,475 4.3 -8.1°
Maximum altitude 05:51:43 71° 64° (ENE) 896 2.6 -7.0°
Drops below altitude 10° 05:57:22 10° 148° (SSE) 2,460 5.3 -6.0°
Sets 05:59:49 0° 151° (SSE) 3,391 6.0 -5.6°
